Year,Month,Day,Hour,Minute,Value (Times are PST for temperature in C)
2017,01,04,00,00,-9.30
2017,01,04,00,01,-9.30
2017,01,04,00,02,-9.20
2017,01,04,00,03,-9.20
2017,01,04,00,04,-9.20
2017,01,04,00,05,-9.30
2017,01,04,00,06,-9.30
2017,01,04,00,07,-9.30
2017,01,04,00,08,-9.30
2017,01,04,00,09,-9.40
2017,01,04,00,10,-9.40
2017,01,04,00,11,-9.40
2017,01,04,00,12,-9.40
2017,01,04,00,13,-9.40
2017,01,04,00,14,-9.40
2017,01,04,00,15,-9.40
2017,01,04,00,16,-9.40
2017,01,04,00,17,-9.40
2017,01,04,00,18,-9.40
2017,01,04,00,19,-9.30
2017,01,04,00,20,-9.30
2017,01,04,00,21,-9.30
2017,01,04,00,22,-9.20
2017,01,04,00,23,-9.20
2017,01,04,00,24,-9.20
2017,01,04,00,25,-9.20
2017,01,04,00,26,-9.20
2017,01,04,00,27,-9.20
2017,01,04,00,28,-9.20
2017,01,04,00,29,-9.20
2017,01,04,00,30,-9.10
2017,01,04,00,31,-9.10
2017,01,04,00,32,-9.10
2017,01,04,00,33,-9.10
2017,01,04,00,34,-9.10
2017,01,04,00,35,-9.10
2017,01,04,00,36,-9.10
2017,01,04,00,37,-9.20
2017,01,04,00,38,-9.20
2017,01,04,00,39,-9.20
2017,01,04,00,40,-9.20
2017,01,04,00,41,-9.20
2017,01,04,00,42,-9.30
2017,01,04,00,43,-9.30
2017,01,04,00,44,-9.30
2017,01,04,00,45,-9.30
2017,01,04,00,46,-9.30
2017,01,04,00,47,-9.30
2017,01,04,00,48,-9.40
2017,01,04,00,49,-9.40
2017,01,04,00,50,-9.40
2017,01,04,00,51,-9.40
2017,01,04,00,52,-9.40
2017,01,04,00,53,-9.40
2017,01,04,00,54,-9.40
2017,01,04,00,55,-9.40
2017,01,04,00,56,-9.40
2017,01,04,00,57,-9.40
2017,01,04,00,58,-9.50
2017,01,04,00,59,-9.60
2017,01,04,01,00,-9.60
2017,01,04,01,01,-9.60
2017,01,04,01,02,-9.70
2017,01,04,01,03,-9.70
2017,01,04,01,04,-9.70
2017,01,04,01,05,-9.70
2017,01,04,01,06,-9.70
2017,01,04,01,07,-9.70
2017,01,04,01,08,-9.80
2017,01,04,01,09,-9.80
2017,01,04,01,10,-9.80
2017,01,04,01,11,-9.80
2017,01,04,01,12,-9.80
2017,01,04,01,13,-9.80
2017,01,04,01,14,-9.80
2017,01,04,01,15,-9.80
2017,01,04,01,16,-9.80
2017,01,04,01,17,-9.80
2017,01,04,01,18,-9.80
2017,01,04,01,19,-9.80
2017,01,04,01,20,-9.80
2017,01,04,01,21,-9.80
2017,01,04,01,22,-9.80
2017,01,04,01,23,-9.80
2017,01,04,01,24,-9.80
2017,01,04,01,25,-9.80
2017,01,04,01,26,-9.80
2017,01,04,01,27,-9.80
2017,01,04,01,28,-9.80
2017,01,04,01,29,-9.80
2017,01,04,01,30,-9.80
2017,01,04,01,31,-9.80
2017,01,04,01,32,-9.80
2017,01,04,01,33,-9.80
2017,01,04,01,34,-9.80
2017,01,04,01,35,-9.80
2017,01,04,01,36,-9.80
2017,01,04,01,37,-9.80
2017,01,04,01,38,-9.90
2017,01,04,01,39,-9.90
2017,01,04,01,40,-9.90
2017,01,04,01,41,-9.90
2017,01,04,01,42,-9.90
2017,01,04,01,43,-9.90
2017,01,04,01,44,-9.90
2017,01,04,01,45,-9.90
2017,01,04,01,46,-9.90
2017,01,04,01,47,-9.90
2017,01,04,01,48,-9.90
2017,01,04,01,49,-9.90
2017,01,04,01,50,-9.90
2017,01,04,01,51,-9.80
2017,01,04,01,52,-9.80
2017,01,04,01,53,-9.80
2017,01,04,01,54,-9.80
2017,01,04,01,55,-9.80
2017,01,04,01,56,-9.70
2017,01,04,01,57,-9.70
2017,01,04,01,58,-9.70
2017,01,04,01,59,-9.70
2017,01,04,02,00,-9.60
2017,01,04,02,01,-9.60
2017,01,04,02,02,-9.60
2017,01,04,02,03,-9.60
2017,01,04,02,04,-9.60
2017,01,04,02,05,-9.60
2017,01,04,02,06,-9.60
2017,01,04,02,07,-9.60
2017,01,04,02,08,-9.60
2017,01,04,02,09,-9.60
2017,01,04,02,10,-9.60
2017,01,04,02,11,-9.50
2017,01,04,02,12,-9.50
2017,01,04,02,13,-9.50
2017,01,04,02,14,-9.50
2017,01,04,02,15,-9.40
2017,01,04,02,16,-9.40
2017,01,04,02,17,-9.40
2017,01,04,02,18,-9.40
2017,01,04,02,19,-9.40
2017,01,04,02,20,-9.40
2017,01,04,02,21,-9.50
2017,01,04,02,22,-9.50
2017,01,04,02,23,-9.50
2017,01,04,02,24,-9.60
2017,01,04,02,25,-9.60
2017,01,04,02,26,-9.60
2017,01,04,02,27,-9.70
2017,01,04,02,28,-9.70
2017,01,04,02,29,-9.70
2017,01,04,02,30,-9.80
2017,01,04,02,31,-9.80
2017,01,04,02,32,-9.80
2017,01,04,02,33,-9.90
2017,01,04,02,34,-9.90
2017,01,04,02,35,-9.90
2017,01,04,02,36,-9.90
2017,01,04,02,37,-9.90
2017,01,04,02,38,-9.90
2017,01,04,02,39,-9.90
2017,01,04,02,40,-9.90
2017,01,04,02,41,-9.90
2017,01,04,02,42,-9.90
2017,01,04,02,43,-10.00
2017,01,04,02,44,-10.00
2017,01,04,02,45,-10.00
2017,01,04,02,46,-10.00
2017,01,04,02,47,-10.00
2017,01,04,02,48,-10.00
2017,01,04,02,49,-10.10
2017,01,04,02,50,-10.10
2017,01,04,02,51,-10.10
2017,01,04,02,52,-10.10
2017,01,04,02,53,-10.10
2017,01,04,02,54,-10.10
2017,01,04,02,55,-10.20
2017,01,04,02,56,-10.20
2017,01,04,02,57,-10.30
2017,01,04,02,58,-10.30
2017,01,04,02,59,-10.30
2017,01,04,03,00,-10.30
2017,01,04,03,01,-10.30
2017,01,04,03,02,-10.30
2017,01,04,03,03,-10.30
2017,01,04,03,04,-10.40
2017,01,04,03,05,-10.40
2017,01,04,03,06,-10.40
2017,01,04,03,07,-10.40
2017,01,04,03,08,-10.40
2017,01,04,03,09,-10.40
2017,01,04,03,10,-10.40
2017,01,04,03,11,-10.40
2017,01,04,03,12,-10.40
2017,01,04,03,13,-10.40
2017,01,04,03,14,-10.30
2017,01,04,03,15,-10.40
2017,01,04,03,16,-10.40
2017,01,04,03,17,-10.40
2017,01,04,03,18,-10.40
2017,01,04,03,19,-10.40
2017,01,04,03,20,-10.40
2017,01,04,03,21,-10.50
2017,01,04,03,22,-10.50
2017,01,04,03,23,-10.50
2017,01,04,03,24,-10.60
2017,01,04,03,25,-10.50
2017,01,04,03,26,-10.50
2017,01,04,03,27,-10.50
2017,01,04,03,28,-10.50
2017,01,04,03,29,-10.60
2017,01,04,03,30,-10.60
2017,01,04,03,31,-10.60
2017,01,04,03,32,-10.60
2017,01,04,03,33,-10.60
2017,01,04,03,34,-10.60
2017,01,04,03,35,-10.60
2017,01,04,03,36,-10.60
2017,01,04,03,37,-10.60
2017,01,04,03,38,-10.60
2017,01,04,03,39,-10.70
2017,01,04,03,40,-10.70
2017,01,04,03,41,-10.70
2017,01,04,03,42,-10.70
2017,01,04,03,43,-10.70
2017,01,04,03,44,-10.70
2017,01,04,03,45,-10.70
2017,01,04,03,46,-10.70
2017,01,04,03,47,-10.70
2017,01,04,03,48,-10.70
2017,01,04,03,49,-10.70
2017,01,04,03,50,-10.80
2017,01,04,03,51,-10.80
2017,01,04,03,52,-10.80
2017,01,04,03,53,-10.70
2017,01,04,03,54,-10.80
2017,01,04,03,55,-10.80
2017,01,04,03,56,-10.70
2017,01,04,03,57,-10.80
2017,01,04,03,58,-10.80
2017,01,04,03,59,-10.80
2017,01,04,04,00,-10.80
2017,01,04,04,01,-10.80
2017,01,04,04,02,-10.80
2017,01,04,04,03,-10.80
2017,01,04,04,04,-10.80
2017,01,04,04,05,-10.80
2017,01,04,04,06,-10.80
2017,01,04,04,07,-10.80
2017,01,04,04,08,-10.80
2017,01,04,04,09,-10.80
2017,01,04,04,10,-10.80
2017,01,04,04,11,-10.80
2017,01,04,04,12,-10.80
2017,01,04,04,13,-10.80
2017,01,04,04,14,-10.80
2017,01,04,04,15,-10.80
2017,01,04,04,16,-10.80
2017,01,04,04,17,-10.80
2017,01,04,04,18,-10.80
2017,01,04,04,19,-10.80
2017,01,04,04,20,-10.80
2017,01,04,04,21,-10.80
2017,01,04,04,22,-10.80
2017,01,04,04,23,-10.80
2017,01,04,04,24,-10.80
2017,01,04,04,25,-10.80
2017,01,04,04,26,-10.80
2017,01,04,04,27,-10.80
2017,01,04,04,28,-10.80
2017,01,04,04,29,-10.80
2017,01,04,04,30,-10.80
2017,01,04,04,31,-10.80
2017,01,04,04,32,-10.80
2017,01,04,04,33,-10.80
2017,01,04,04,34,-10.80
2017,01,04,04,35,-10.80
2017,01,04,04,36,-10.80
2017,01,04,04,37,-10.80
2017,01,04,04,38,-10.80
2017,01,04,04,39,-10.80
2017,01,04,04,40,-10.80
2017,01,04,04,41,-10.80
2017,01,04,04,42,-10.80
2017,01,04,04,43,-10.80
2017,01,04,04,44,-10.80
2017,01,04,04,45,-10.90
2017,01,04,04,46,-10.90
2017,01,04,04,47,-10.90
2017,01,04,04,48,-10.90
2017,01,04,04,49,-10.90
2017,01,04,04,50,-10.80
2017,01,04,04,51,-10.80
2017,01,04,04,52,-10.80
2017,01,04,04,53,-10.80
2017,01,04,04,54,-10.80
2017,01,04,04,55,-10.80
2017,01,04,04,56,-10.80
2017,01,04,04,57,-10.80
2017,01,04,04,58,-10.80
2017,01,04,04,59,-10.80
2017,01,04,05,00,-10.80
2017,01,04,05,01,-10.80
2017,01,04,05,02,-10.80
2017,01,04,05,03,-10.80
2017,01,04,05,04,-10.80
2017,01,04,05,05,-10.80
2017,01,04,05,06,-10.80
2017,01,04,05,07,-10.80
2017,01,04,05,08,-10.90
2017,01,04,05,09,-10.90
2017,01,04,05,10,-10.90
2017,01,04,05,11,-10.90
2017,01,04,05,12,-10.90
2017,01,04,05,13,-10.90
2017,01,04,05,14,-10.90
2017,01,04,05,15,-10.90
2017,01,04,05,16,-10.90
2017,01,04,05,17,-10.90
2017,01,04,05,18,-10.90
2017,01,04,05,19,-10.90
2017,01,04,05,20,-10.90
2017,01,04,05,21,-10.90
2017,01,04,05,22,-11.00
2017,01,04,05,23,-11.00
2017,01,04,05,24,-11.00
2017,01,04,05,25,-11.00
2017,01,04,05,26,-11.00
2017,01,04,05,27,-11.00
2017,01,04,05,28,-11.00
2017,01,04,05,29,-11.00
2017,01,04,05,30,-11.00
2017,01,04,05,31,-11.00
2017,01,04,05,32,-11.00
2017,01,04,05,33,-11.10
2017,01,04,05,34,-11.10
2017,01,04,05,35,-11.10
2017,01,04,05,36,-11.10
2017,01,04,05,37,-11.10
2017,01,04,05,38,-11.10
2017,01,04,05,39,-11.10
2017,01,04,05,40,-11.10
2017,01,04,05,41,-11.10
2017,01,04,05,42,-11.10
2017,01,04,05,43,-11.10
2017,01,04,05,44,-11.10
2017,01,04,05,45,-11.10
2017,01,04,05,46,-11.10
2017,01,04,05,47,-11.10
2017,01,04,05,48,-11.20
2017,01,04,05,49,-11.10
2017,01,04,05,50,-11.10
2017,01,04,05,51,-11.10
2017,01,04,05,52,-11.10
2017,01,04,05,53,-11.20
2017,01,04,05,54,-11.20
2017,01,04,05,55,-11.20
2017,01,04,05,56,-11.20
2017,01,04,05,57,-11.20
2017,01,04,05,58,-11.20
2017,01,04,05,59,-11.20
2017,01,04,06,00,-11.20
2017,01,04,06,01,-11.20
2017,01,04,06,02,-11.20
2017,01,04,06,03,-11.20
2017,01,04,06,04,-11.20
2017,01,04,06,05,-11.20
2017,01,04,06,06,-11.20
2017,01,04,06,07,-11.30
2017,01,04,06,08,-11.20
2017,01,04,06,09,-11.30
2017,01,04,06,10,-11.20
2017,01,04,06,11,-11.20
2017,01,04,06,12,-11.20
2017,01,04,06,13,-11.20
2017,01,04,06,14,-11.20
2017,01,04,06,15,-11.20
2017,01,04,06,16,-11.30
2017,01,04,06,17,-11.30
2017,01,04,06,18,-11.30
2017,01,04,06,19,-11.30
2017,01,04,06,20,-11.30
2017,01,04,06,21,-11.20
2017,01,04,06,22,-11.20
2017,01,04,06,23,-11.20
2017,01,04,06,24,-11.20
2017,01,04,06,25,-11.20
2017,01,04,06,26,-11.20
2017,01,04,06,27,-11.20
2017,01,04,06,28,-11.20
2017,01,04,06,29,-11.20
2017,01,04,06,30,-11.20
2017,01,04,06,31,-11.20
2017,01,04,06,32,-11.20
2017,01,04,06,33,-11.20
2017,01,04,06,34,-11.20
2017,01,04,06,35,-11.20
2017,01,04,06,36,-11.20
2017,01,04,06,37,-11.20
2017,01,04,06,38,-11.20
2017,01,04,06,39,-11.20
2017,01,04,06,40,-11.20
2017,01,04,06,41,-11.20
2017,01,04,06,42,-11.20
2017,01,04,06,43,-11.20
2017,01,04,06,44,-11.20
2017,01,04,06,45,-11.30
2017,01,04,06,46,-11.30
2017,01,04,06,47,-11.30
2017,01,04,06,48,-11.30
2017,01,04,06,49,-11.30
2017,01,04,06,50,-11.30
2017,01,04,06,51,-11.30
2017,01,04,06,52,-11.30
2017,01,04,06,53,-11.30
2017,01,04,06,54,-11.30
2017,01,04,06,55,-11.40
2017,01,04,06,56,-11.40
2017,01,04,06,57,-11.40
2017,01,04,06,58,-11.40
2017,01,04,06,59,-11.40
2017,01,04,07,00,-11.40
2017,01,04,07,01,-11.40
2017,01,04,07,02,-11.40
2017,01,04,07,03,-11.40
2017,01,04,07,04,-11.40
2017,01,04,07,05,-11.40
2017,01,04,07,06,-11.40
2017,01,04,07,07,-11.40
2017,01,04,07,08,-11.40
2017,01,04,07,09,-11.40
2017,01,04,07,10,-11.40
2017,01,04,07,11,-11.50
2017,01,04,07,12,-11.50
2017,01,04,07,13,-11.50
2017,01,04,07,14,-11.50
2017,01,04,07,15,-11.50
2017,01,04,07,16,-11.50
2017,01,04,07,17,-11.50
2017,01,04,07,18,-11.50
2017,01,04,07,19,-11.50
2017,01,04,07,20,-11.50
2017,01,04,07,21,-11.40
2017,01,04,07,22,-11.50
2017,01,04,07,23,-11.40
2017,01,04,07,24,-11.40
2017,01,04,07,25,-11.40
2017,01,04,07,26,-11.40
2017,01,04,07,27,-11.40
2017,01,04,07,28,-11.40
2017,01,04,07,29,-11.40
2017,01,04,07,30,-11.50
2017,01,04,07,31,-11.40
2017,01,04,07,32,-11.40
2017,01,04,07,33,-11.40
2017,01,04,07,34,-11.40
2017,01,04,07,35,-11.40
2017,01,04,07,36,-11.40
2017,01,04,07,37,-11.40
2017,01,04,07,38,-11.40
2017,01,04,07,39,-11.40
2017,01,04,07,40,-11.40
2017,01,04,07,41,-11.40
2017,01,04,07,42,-11.40
2017,01,04,07,43,-11.40
2017,01,04,07,44,-11.40
2017,01,04,07,45,-11.40
2017,01,04,07,46,-11.40
2017,01,04,07,47,-11.40
2017,01,04,07,48,-11.40
2017,01,04,07,49,-11.40
2017,01,04,07,50,-11.40
2017,01,04,07,51,-11.40
2017,01,04,07,52,-11.40
2017,01,04,07,53,-11.40
2017,01,04,07,54,-11.40
2017,01,04,07,55,-11.40
2017,01,04,07,56,-11.40
2017,01,04,07,57,-11.40
2017,01,04,07,58,-11.40
2017,01,04,07,59,-11.40
2017,01,04,08,00,-11.40
2017,01,04,08,01,-11.50
2017,01,04,08,02,-11.50
2017,01,04,08,03,-11.50
2017,01,04,08,04,-11.50
2017,01,04,08,05,-11.50
2017,01,04,08,06,-11.50
2017,01,04,08,07,-11.50
2017,01,04,08,08,-11.50
2017,01,04,08,09,-11.50
2017,01,04,08,10,-11.50
2017,01,04,08,11,-11.50
2017,01,04,08,12,-11.50
2017,01,04,08,13,-11.50
2017,01,04,08,14,-11.50
2017,01,04,08,15,-11.50
2017,01,04,08,16,-11.50
2017,01,04,08,17,-11.50
2017,01,04,08,18,-11.50
2017,01,04,08,19,-11.50
2017,01,04,08,20,-11.50
2017,01,04,08,21,-11.50
2017,01,04,08,22,-11.50
2017,01,04,08,23,-11.50
2017,01,04,08,24,-11.50
2017,01,04,08,25,-11.50
2017,01,04,08,26,-11.50
2017,01,04,08,27,-11.50
2017,01,04,08,28,-11.50
2017,01,04,08,29,-11.50
2017,01,04,08,30,-11.50
2017,01,04,08,31,-11.60
2017,01,04,08,32,-11.60
2017,01,04,08,33,-11.60
2017,01,04,08,34,-11.60
2017,01,04,08,35,-11.60
2017,01,04,08,36,-11.60
2017,01,04,08,37,-11.60
2017,01,04,08,38,-11.60
2017,01,04,08,39,-11.60
2017,01,04,08,40,-11.60
2017,01,04,08,41,-11.50
2017,01,04,08,42,-11.50
2017,01,04,08,43,-11.50
2017,01,04,08,44,-11.50
2017,01,04,08,45,-11.50
2017,01,04,08,46,-11.50
2017,01,04,08,47,-11.50
2017,01,04,08,48,-11.40
2017,01,04,08,49,-11.40
2017,01,04,08,50,-11.40
2017,01,04,08,51,-11.40
2017,01,04,08,52,-11.40
2017,01,04,08,53,-11.40
2017,01,04,08,54,-11.40
2017,01,04,08,55,-11.40
2017,01,04,08,56,-11.40
2017,01,04,08,57,-11.40
2017,01,04,08,58,-11.50
2017,01,04,08,59,-11.40
2017,01,04,09,00,-11.40
2017,01,04,09,01,-11.40
2017,01,04,09,02,-11.40
2017,01,04,09,03,-11.40
2017,01,04,09,04,-11.40
2017,01,04,09,05,-11.40
2017,01,04,09,06,-11.40
2017,01,04,09,07,-11.40
2017,01,04,09,08,-11.30
2017,01,04,09,09,-11.30
2017,01,04,09,10,-11.30
2017,01,04,09,11,-11.30
2017,01,04,09,12,-11.30
2017,01,04,09,13,-11.30
2017,01,04,09,14,-11.30
2017,01,04,09,15,-11.30
2017,01,04,09,16,-11.30
2017,01,04,09,17,-11.30
2017,01,04,09,18,-11.30
2017,01,04,09,19,-11.30
2017,01,04,09,20,-11.30
2017,01,04,09,21,-11.20
2017,01,04,09,22,-11.20
2017,01,04,09,23,-11.20
2017,01,04,09,24,-11.10
2017,01,04,09,25,-11.00
2017,01,04,09,26,-11.00
2017,01,04,09,27,-10.90
2017,01,04,09,28,-10.80
2017,01,04,09,29,-10.70
2017,01,04,09,30,-10.70
2017,01,04,09,31,-10.70
2017,01,04,09,32,-10.60
2017,01,04,09,33,-10.60
2017,01,04,09,34,-10.60
2017,01,04,09,35,-10.50
2017,01,04,09,36,-10.50
2017,01,04,09,37,-10.50
2017,01,04,09,38,-10.50
2017,01,04,09,39,-10.50
2017,01,04,09,40,-10.40
2017,01,04,09,41,-10.40
2017,01,04,09,42,-10.40
2017,01,04,09,43,-10.30
2017,01,04,09,44,-10.30
2017,01,04,09,45,-10.20
2017,01,04,09,46,-10.20
2017,01,04,09,47,-10.10
2017,01,04,09,48,-10.00
2017,01,04,09,49,-9.90
2017,01,04,09,50,-9.80
2017,01,04,09,51,-9.70
2017,01,04,09,52,-9.60
2017,01,04,09,53,-9.50
2017,01,04,09,54,-9.40
2017,01,04,09,55,-9.30
2017,01,04,09,56,-9.20
2017,01,04,09,57,-9.10
2017,01,04,09,58,-9.10
2017,01,04,09,59,-9.00
2017,01,04,10,00,-8.90
2017,01,04,10,01,-8.80
2017,01,04,10,02,-8.80
2017,01,04,10,03,-8.70
2017,01,04,10,04,-8.60
2017,01,04,10,05,-8.40
2017,01,04,10,06,-8.30
2017,01,04,10,07,-8.20
2017,01,04,10,08,-8.10
2017,01,04,10,09,-8.00
2017,01,04,10,10,-8.00
2017,01,04,10,11,-7.90
2017,01,04,10,12,-7.90
2017,01,04,10,13,-7.90
2017,01,04,10,14,-7.90
2017,01,04,10,15,-7.90
2017,01,04,10,16,-7.90
2017,01,04,10,17,-7.90
2017,01,04,10,18,-7.80
2017,01,04,10,19,-7.80
2017,01,04,10,20,-7.70
2017,01,04,10,21,-7.70
2017,01,04,10,22,-7.60
2017,01,04,10,23,-7.50
2017,01,04,10,24,-7.50
2017,01,04,10,25,-7.40
2017,01,04,10,26,-7.30
2017,01,04,10,27,-7.30
2017,01,04,10,28,-7.30
2017,01,04,10,29,-7.20
2017,01,04,10,30,-7.20
2017,01,04,10,31,-7.20
2017,01,04,10,32,-7.20
2017,01,04,10,33,-7.20
2017,01,04,10,34,-7.10
2017,01,04,10,35,-7.00
2017,01,04,10,36,-6.90
2017,01,04,10,37,-6.80
2017,01,04,10,38,-6.70
2017,01,04,10,39,-6.60
2017,01,04,10,40,-6.40
2017,01,04,10,41,-6.30
2017,01,04,10,42,-6.20
2017,01,04,10,43,-6.10
2017,01,04,10,44,-6.00
2017,01,04,10,45,-6.00
2017,01,04,10,46,-5.90
2017,01,04,10,47,-5.90
2017,01,04,10,48,-5.70
2017,01,04,10,49,-5.60
2017,01,04,10,50,-5.50
2017,01,04,10,51,-5.40
2017,01,04,10,52,-5.30
2017,01,04,10,53,-5.10
2017,01,04,10,54,-5.00
2017,01,04,10,55,-5.00
2017,01,04,10,56,-4.80
2017,01,04,10,57,-4.80
2017,01,04,10,58,-4.70
2017,01,04,10,59,-4.60
2017,01,04,11,00,-4.50
2017,01,04,11,01,-4.40
2017,01,04,11,02,-4.30
2017,01,04,11,03,-4.30
2017,01,04,11,04,-4.30
2017,01,04,11,05,-4.30
2017,01,04,11,06,-4.40
2017,01,04,11,07,-4.40
2017,01,04,11,08,-4.50
2017,01,04,11,09,-4.60
2017,01,04,11,10,-4.70
2017,01,04,11,11,-4.70
2017,01,04,11,12,-4.70
2017,01,04,11,13,-4.70
2017,01,04,11,14,-4.70
2017,01,04,11,15,-4.70
2017,01,04,11,16,-4.70
2017,01,04,11,17,-4.70
2017,01,04,11,18,-4.70
2017,01,04,11,19,-4.70
2017,01,04,11,20,-4.70
2017,01,04,11,21,-4.70
2017,01,04,11,22,-4.60
2017,01,04,11,23,-4.50
2017,01,04,11,24,-4.40
2017,01,04,11,25,-4.30
2017,01,04,11,26,-4.20
2017,01,04,11,27,-4.10
2017,01,04,11,28,-4.10
2017,01,04,11,29,-4.00
2017,01,04,11,30,-4.00
2017,01,04,11,31,-3.90
2017,01,04,11,32,-3.80
2017,01,04,11,33,-3.80
2017,01,04,11,34,-3.70
2017,01,04,11,35,-3.70
2017,01,04,11,36,-3.70
2017,01,04,11,37,-3.70
2017,01,04,11,38,-3.70
2017,01,04,11,39,-3.70
2017,01,04,11,40,-3.70
2017,01,04,11,41,-3.70
2017,01,04,11,42,-3.70
2017,01,04,11,43,-3.70
2017,01,04,11,44,-3.70
2017,01,04,11,45,-3.70
2017,01,04,11,46,-3.60
2017,01,04,11,47,-3.60
2017,01,04,11,48,-3.60
2017,01,04,11,49,-3.60
2017,01,04,11,50,-3.50
2017,01,04,11,51,-3.50
2017,01,04,11,52,-3.50
2017,01,04,11,53,-3.40
2017,01,04,11,54,-3.40
2017,01,04,11,55,-3.40
2017,01,04,11,56,-3.30
2017,01,04,11,57,-3.20
2017,01,04,11,58,-3.10
2017,01,04,11,59,-3.10
2017,01,04,12,00,-3.10
2017,01,04,12,01,-3.10
2017,01,04,12,02,-3.10
2017,01,04,12,03,-3.10
2017,01,04,12,04,-3.10
2017,01,04,12,05,-3.10
2017,01,04,12,06,-3.10
2017,01,04,12,07,-3.00
2017,01,04,12,08,-3.00
2017,01,04,12,09,-2.90
2017,01,04,12,10,-2.80
2017,01,04,12,11,-2.80
2017,01,04,12,12,-2.80
2017,01,04,12,13,-2.70
2017,01,04,12,14,-2.60
2017,01,04,12,15,-2.60
2017,01,04,12,16,-2.50
2017,01,04,12,17,-2.50
2017,01,04,12,18,-2.50
2017,01,04,12,19,-2.50
2017,01,04,12,20,-2.50
2017,01,04,12,21,-2.50
2017,01,04,12,22,-2.40
2017,01,04,12,23,-2.40
2017,01,04,12,24,-2.30
2017,01,04,12,25,-2.20
2017,01,04,12,26,-2.20
2017,01,04,12,27,-2.10
2017,01,04,12,28,-2.00
2017,01,04,12,29,-1.90
2017,01,04,12,30,-1.80
2017,01,04,12,31,-1.80
2017,01,04,12,32,-1.70
2017,01,04,12,33,-1.60
2017,01,04,12,34,-1.60
2017,01,04,12,35,-1.50
2017,01,04,12,36,-1.50
2017,01,04,12,37,-1.50
2017,01,04,12,38,-1.60
2017,01,04,12,39,-1.60
2017,01,04,12,40,-1.60
2017,01,04,12,41,-1.60
2017,01,04,12,42,-1.60
2017,01,04,12,43,-1.60
2017,01,04,12,44,-1.50
2017,01,04,12,45,-1.50
2017,01,04,12,46,-1.40
2017,01,04,12,47,-1.40
2017,01,04,12,48,-1.50
2017,01,04,12,49,-1.50
2017,01,04,12,50,-1.50
2017,01,04,12,51,-1.60
2017,01,04,12,52,-1.60
2017,01,04,12,53,-1.60
2017,01,04,12,54,-1.60
2017,01,04,12,55,-1.60
2017,01,04,12,56,-1.60
2017,01,04,12,57,-1.60
2017,01,04,12,58,-1.50
2017,01,04,12,59,-1.40
2017,01,04,13,00,-1.30
2017,01,04,13,01,-1.30
2017,01,04,13,02,-1.30
2017,01,04,13,03,-1.30
2017,01,04,13,04,-1.40
2017,01,04,13,05,-1.40
2017,01,04,13,06,-1.40
2017,01,04,13,07,-1.40
2017,01,04,13,08,-1.40
2017,01,04,13,09,-1.40
2017,01,04,13,10,-1.40
2017,01,04,13,11,-1.30
2017,01,04,13,12,-1.30
2017,01,04,13,13,-1.20
2017,01,04,13,14,-1.10
2017,01,04,13,15,-1.00
2017,01,04,13,16,-0.90
2017,01,04,13,17,-0.80
2017,01,04,13,18,-0.70
2017,01,04,13,19,-0.60
2017,01,04,13,20,-0.60
2017,01,04,13,21,-0.50
2017,01,04,13,22,-0.50
2017,01,04,13,23,-0.40
2017,01,04,13,24,-0.40
2017,01,04,13,25,-0.30
2017,01,04,13,26,-0.30
2017,01,04,13,27,-0.20
2017,01,04,13,28,-0.20
2017,01,04,13,29,0.00
2017,01,04,13,30,0.10
2017,01,04,13,31,0.20
2017,01,04,13,32,0.30
2017,01,04,13,33,0.40
2017,01,04,13,34,0.50
2017,01,04,13,35,0.50
2017,01,04,13,36,0.60
2017,01,04,13,37,0.60
2017,01,04,13,38,0.70
2017,01,04,13,39,0.70
2017,01,04,13,40,0.80
2017,01,04,13,41,0.90
2017,01,04,13,42,1.00
2017,01,04,13,43,1.00
2017,01,04,13,44,1.10
2017,01,04,13,45,1.20
2017,01,04,13,46,1.20
2017,01,04,13,47,1.30
2017,01,04,13,48,1.30
2017,01,04,13,49,1.40
2017,01,04,13,50,1.40
2017,01,04,13,51,1.50
2017,01,04,13,52,1.50
2017,01,04,13,53,1.60
2017,01,04,13,54,1.50
2017,01,04,13,55,1.50
2017,01,04,13,56,1.40
2017,01,04,13,57,1.30
2017,01,04,13,58,1.20
2017,01,04,13,59,1.10
2017,01,04,14,00,1.00
2017,01,04,14,01,0.90
2017,01,04,14,02,0.80
2017,01,04,14,03,0.80
2017,01,04,14,04,0.70
2017,01,04,14,05,0.60
2017,01,04,14,06,0.60
2017,01,04,14,07,0.50
2017,01,04,14,08,0.50
2017,01,04,14,09,0.40
2017,01,04,14,10,0.40
2017,01,04,14,11,0.40
2017,01,04,14,12,0.30
2017,01,04,14,13,0.30
2017,01,04,14,14,0.30
2017,01,04,14,15,0.30
2017,01,04,14,16,0.40
2017,01,04,14,17,0.40
2017,01,04,14,18,0.40
2017,01,04,14,19,0.50
2017,01,04,14,20,0.50
2017,01,04,14,21,0.60
2017,01,04,14,22,0.60
2017,01,04,14,23,0.70
2017,01,04,14,24,0.70
2017,01,04,14,25,0.70
2017,01,04,14,26,0.80
2017,01,04,14,27,0.80
2017,01,04,14,28,0.80
2017,01,04,14,29,0.90
2017,01,04,14,30,0.90
2017,01,04,14,31,0.90
2017,01,04,14,32,0.90
2017,01,04,14,33,0.90
2017,01,04,14,34,0.90
2017,01,04,14,35,0.90
2017,01,04,14,36,0.80
2017,01,04,14,37,0.80
2017,01,04,14,38,0.80
2017,01,04,14,39,0.80
2017,01,04,14,40,0.80
2017,01,04,14,41,0.90
2017,01,04,14,42,0.80
2017,01,04,14,43,0.80
2017,01,04,14,44,0.80
2017,01,04,14,45,0.80
2017,01,04,14,46,0.80
2017,01,04,14,47,0.70
2017,01,04,14,48,0.70
2017,01,04,14,49,0.60
2017,01,04,14,50,0.50
2017,01,04,14,51,0.40
2017,01,04,14,52,0.30
2017,01,04,14,53,0.20
2017,01,04,14,54,0.00
2017,01,04,14,55,-0.10
2017,01,04,14,56,-0.20
2017,01,04,14,57,-0.30
2017,01,04,14,58,-0.40
2017,01,04,14,59,-0.50
2017,01,04,15,00,-0.60
2017,01,04,15,01,-0.70
2017,01,04,15,02,-0.80
2017,01,04,15,03,-0.90
2017,01,04,15,04,-1.00
2017,01,04,15,05,-1.10
2017,01,04,15,06,-1.20
2017,01,04,15,07,-1.30
2017,01,04,15,08,-1.40
2017,01,04,15,09,-1.50
2017,01,04,15,10,-1.60
2017,01,04,15,11,-1.70
2017,01,04,15,12,-1.90
2017,01,04,15,13,-2.00
2017,01,04,15,14,-2.10
2017,01,04,15,15,-2.20
2017,01,04,15,16,-2.30
2017,01,04,15,17,-2.40
2017,01,04,15,18,-2.50
2017,01,04,15,19,-2.50
2017,01,04,15,20,-2.60
2017,01,04,15,21,-2.70
2017,01,04,15,22,-2.80
2017,01,04,15,23,-2.80
2017,01,04,15,24,-2.80
2017,01,04,15,25,-2.90
2017,01,04,15,26,-2.90
2017,01,04,15,27,-2.90
2017,01,04,15,28,-3.00
2017,01,04,15,29,-3.00
2017,01,04,15,30,-3.10
2017,01,04,15,31,-3.10
2017,01,04,15,32,-3.10
2017,01,04,15,33,-3.20
2017,01,04,15,34,-3.20
2017,01,04,15,35,-3.20
2017,01,04,15,36,-3.20
2017,01,04,15,37,-3.30
2017,01,04,15,38,-3.30
2017,01,04,15,39,-3.30
2017,01,04,15,40,-3.30
2017,01,04,15,41,-3.30
2017,01,04,15,42,-3.30
2017,01,04,15,43,-3.40
2017,01,04,15,44,-3.40
2017,01,04,15,45,-3.50
2017,01,04,15,46,-3.50
2017,01,04,15,47,-3.50
2017,01,04,15,48,-3.60
2017,01,04,15,49,-3.60
2017,01,04,15,50,-3.60
2017,01,04,15,51,-3.60
2017,01,04,15,52,-3.70
2017,01,04,15,53,-3.70
2017,01,04,15,54,-3.70
2017,01,04,15,55,-3.70
2017,01,04,15,56,-3.70
2017,01,04,15,57,-3.70
2017,01,04,15,58,-3.80
2017,01,04,15,59,-3.80
2017,01,04,16,00,-3.90
2017,01,04,16,01,-3.90
2017,01,04,16,02,-3.90
2017,01,04,16,03,-3.90
2017,01,04,16,04,-4.00
2017,01,04,16,05,-4.00
2017,01,04,16,06,-4.00
2017,01,04,16,07,-4.00
2017,01,04,16,08,-4.00
2017,01,04,16,09,-4.10
2017,01,04,16,10,-4.10
2017,01,04,16,11,-4.10
2017,01,04,16,12,-4.10
2017,01,04,16,13,-4.20
2017,01,04,16,14,-4.20
2017,01,04,16,15,-4.20
2017,01,04,16,16,-4.30
2017,01,04,16,17,-4.30
2017,01,04,16,18,-4.30
2017,01,04,16,19,-4.30
2017,01,04,16,20,-4.40
2017,01,04,16,21,-4.40
2017,01,04,16,22,-4.40
2017,01,04,16,23,-4.40
2017,01,04,16,24,-4.40
2017,01,04,16,25,-4.40
2017,01,04,16,26,-4.40
2017,01,04,16,27,-4.50
2017,01,04,16,28,-4.50
2017,01,04,16,29,-4.50
2017,01,04,16,30,-4.50
2017,01,04,16,31,-4.50
2017,01,04,16,32,-4.60
2017,01,04,16,33,-4.60
2017,01,04,16,34,-4.60
2017,01,04,16,35,-4.60
2017,01,04,16,36,-4.60
2017,01,04,16,37,-4.60
2017,01,04,16,38,-4.70
2017,01,04,16,39,-4.70
2017,01,04,16,40,-4.70
2017,01,04,16,41,-4.70
2017,01,04,16,42,-4.70
2017,01,04,16,43,-4.70
2017,01,04,16,44,-4.70
2017,01,04,16,45,-4.70
2017,01,04,16,46,-4.80
2017,01,04,16,47,-4.80
2017,01,04,16,48,-4.80
2017,01,04,16,49,-4.80
2017,01,04,16,50,-4.90
2017,01,04,16,51,-4.90
2017,01,04,16,52,-4.90
2017,01,04,16,53,-4.90
2017,01,04,16,54,-5.00
2017,01,04,16,55,-5.00
2017,01,04,16,56,-5.00
2017,01,04,16,57,-5.10
2017,01,04,16,58,-5.10
2017,01,04,16,59,-5.10
2017,01,04,17,00,-5.10
2017,01,04,17,01,-5.10
2017,01,04,17,02,-5.10
2017,01,04,17,03,-5.10
2017,01,04,17,04,-5.10